Home > Weather > Krasnodar > Past weeks

Flag for Russia Past Weather in Krasnodar, Russia — Yesterday and Last 2 Weeks

Now
75 °F

Passing clouds.


Feels Like: 78 °F
Forecast: 57 / 71 °F
Wind: 6 mph from East

Location: Krasnodar Airport

Current Time: May 25, 2016 at 4:12:44 PM

Latest Report: May 25, 2016 at 3:30 PM


Visibility: N/A

Pressure: 29.74 "Hg

Humidity: 50%

Dew Point: 55 °F

Location of KrasnodarLocation

Past Weather in Krasnodar — Graph

°F

Krasnodar Temperature Yesterday

Maximum temperature yesterday: 70 °F (at 4:00 PM)
Minimum temperature yesterday: 57 °F (at 5:00 AM)
Average temperature yesterday: 61 °F

High & Low Weather Summary for the Past Weeks

 TemperatureHumidityPressure
High81 °F (May 15, 2:00 PM)100% (May 13, 4:00 AM)30.12 "Hg (May 13, 4:00 AM)
Low46 °F (May 21, 4:30 AM)33% (May 21, 4:30 PM)29.65 "Hg (May 14, 12:30 AM)
Average63 °F73%29.86 "Hg
* Reported May 10 3:00 PM — May 25 3:00 PM, Krasnodar, Weather by CustomWeather, © 2016

Note: Actual official high and low records may vary slightly from our data, if they occured in-between our weather recording intervals... More about our weather records

Advertising

Krasnodar Weather History for the Previous 24 Hours

Scroll right to see more
 ConditionsComfort  
Time TempWeatherWind HumidityBarometerVisibility
3:00 PM
Wed, May 25
73 °FPassing clouds.8 mph53%29.74 "HgN/A
2:30 PM73 °FPassing clouds.6 mph53%29.74 "HgN/A
2:00 PM73 °FPassing clouds.6 mph50%29.77 "HgN/A
1:30 PM73 °FPassing clouds.6 mph53%29.77 "HgN/A
1:00 PM73 °FPassing clouds.6 mph53%29.77 "HgN/A
12:30 PM72 °FPassing clouds.6 mph57%29.77 "HgN/A
12:00 PM72 °FSunny.6 mph61%29.77 "Hg10 mi
11:30 AM70 °FPassing clouds.6 mph64%29.77 "HgN/A
11:00 AM70 °FPassing clouds.6 mph64%29.80 "HgN/A
10:30 AM68 °FPassing clouds.3 mph64%29.80 "HgN/A
10:00 AM68 °FSunny.1 mph69%29.80 "Hg10 mi
9:30 AM66 °FPassing clouds.3 mph68%29.80 "HgN/A
9:00 AM66 °FPassing clouds.3 mph68%29.80 "HgN/A
8:30 AM64 °FPassing clouds.3 mph73%29.80 "HgN/A
8:00 AM64 °FSunny.1 mph73%29.80 "Hg10 mi
7:30 AM63 °FSunny.1 mph77%29.80 "Hg10 mi
7:00 AM61 °FSunny.3 mph83%29.80 "Hg10 mi
6:30 AM59 °FSunny.3 mph94%29.80 "Hg10 mi
6:00 AM57 °FSunny.3 mph94%29.80 "Hg10 mi
5:30 AM55 °FSunny.3 mph100%29.80 "Hg10 mi
5:00 AM54 °FClear.6 mph94%29.80 "HgN/A
4:30 AM52 °FClear.1 mph94%29.80 "Hg4 mi
4:00 AM52 °FClear.1 mph94%29.80 "Hg5 mi
3:30 AM52 °FClear.1 mph100%29.83 "Hg6 mi
3:00 AM52 °FClear.No wind94%29.83 "Hg6 mi
2:30 AM55 °FClear.3 mph88%29.83 "Hg10 mi
2:00 AM54 °FClear.1 mph100%29.80 "Hg10 mi
1:30 AM55 °FClear.1 mph94%29.83 "Hg10 mi
1:00 AM55 °FClear.3 mph94%29.83 "Hg10 mi
12:30 AM55 °FClear.6 mph94%29.83 "Hg10 mi
12:00 AM57 °FClear.8 mph88%29.83 "Hg10 mi
11:30 PM
Tue, May 24
57 °FClear.10 mph88%29.83 "Hg10 mi
11:00 PM57 °FClear.3 mph88%29.83 "Hg10 mi
10:30 PM59 °FClear.6 mph88%29.83 "Hg10 mi
10:00 PM59 °FClear.3 mph88%29.83 "Hg10 mi
9:30 PM59 °FClear.3 mph88%29.83 "Hg10 mi
9:00 PM59 °FClear.3 mph88%29.83 "Hg10 mi
8:30 PM61 °FClear.6 mph83%29.83 "Hg10 mi
8:00 PM61 °FClear.6 mph88%29.83 "Hg10 mi
7:30 PM61 °FSunny.3 mph88%29.83 "Hg10 mi
7:00 PM63 °FPassing clouds.1 mph77%29.83 "HgN/A
6:30 PM61 °FScattered clouds.6 mph88%29.83 "HgN/A
6:00 PM61 °FSprinkles. Partly sunny.3 mph83%29.83 "HgN/A
5:30 PM63 °FSprinkles. Partly sunny.6 mph73%29.83 "HgN/A
5:00 PM64 °FThundershowers. Scattered clouds.10 mph64%29.83 "HgN/A
4:30 PM70 °FScattered clouds.8 mph60%29.80 "HgN/A
4:00 PM70 °FScattered clouds.8 mph64%29.80 "HgN/A
Weather by CustomWeather, © 2016

See weather overviewHow to use our weather pages